English version Home page |
Updated on January 6, 2021 |
|
軌道要素Epoch 2014 May 23.0 TT = JDT 2456800.5 T 2014 May 6.32390 TT MPC q 0.9694568 (2000.0) P Q n 0.19344643 Peri. 152.39301 -0.78895420 +0.52311736 a 2.9609352 Node 62.82469 -0.60908145 -0.59660334 e 0.6725843 Incl. 21.24342 -0.08106206 -0.60861538 P 5.09 From 2371 observations 2003 Dec. 3-2014 Oct. 21, mean residual 0".4.
|
星図
|
光度変化m1 = 18.0 + 5 logΔ + 2.0 log r
|
軌道要素はM.P.E.C. 2014-V27に掲載されたものです。
|